CAPE
0 0 0 0 0 0 0 0 1 35 1 0 0 6 237 142 152 462 880 1302 1344 1377 1707 1675 2510 2723 2759 2685 2367 1983 1659 1647 1648 1654 1665 1705 1794 1733 1991 2151 1955 1399 542 329 317 291 246 200 119
0 0 0 0 0 0 0 0 5 25 0 0 0 53 869 361 203 1334 629 1535 1223 1521 1637 1540 2448 2644 2727 2554 2248 1894 1745 1777 1790 1750 1734 1795 1845 1739 1781 1961 1642 863 262 51 107 173 170 179 180
0 0 0 0 0 0 0 48 45 30 0 0 0 955 1038 44 907 1573 675 1665 1311 1572 1696 2049 2414 2497 2641 2492 2194 1969 1857 1901 1902 1868 1852 1820 1868 1772 1708 1578 1181 544 171 17 46 135 226 123 142
0 0 0 0 0 0 0 0 17 1 0 0 0 820 492 257 1376 1232 735 1332 1129 1056 1683 1995 2304 2379 2509 2476 2258 2147 2094 2028 1954 1938 1859 1791 1719 1642 1527 1301 1039 597 213 21 69 269 369 285 171
0 0 0 0 0 0 0 13 15 3 1 0 0 1166 781 1217 1124 864 965 985 1037 1104 1792 1592 2183 2324 2393 2424 2349 2203 2087 1968 1959 1950 1864 1753 1611 1488 1385 1234 1083 716 245 96 136 265 466 435 348
0 0 0 0 0 0 0 2 11 0 0 0 0 742 1465 1097 844 768 803 876 831 2055 1380 1302 1988 2169 2190 2244 2258 2146 2021 1946 1959 1871 1774 1709 1537 1401 1309 1199 1046 738 434 256 216 276 405 471 429
0 0 0 0 0 0 28 0 0 0 1 2 3 349 1442 872 871 675 625 898 1391 1734 1124 1127 1003 1666 2055 2045 2003 1980 1891 1865 1819 1703 1645 1577 1457 1345 1242 1119 918 610 443 339 248 264 238 229 234
0 0 0 0 0 0 56 71 5 0 0 0 2 775 1499 1110 1048 924 721 802 1016 1200 902 731 757 690 966 1270 1858 1807 1749 1734 1652 1565 1519 1421 1331 1262 1130 932 794 607 464 407 301 236 157 103 98
0 0 0 0 0 0 0 0 0 0 0 0 0 1420 1777 1419 1079 919 791 876 882 1166 900 553 253 355 257 390 1019 1482 1348 1367 1438 1316 1434 980 296 406 266 228 616 786 611 447 378 300 220 160 132
0 0 0 0 0 0 0 0 0 0 0 0 0 417 1587 996 1397 1289 1040 877 839 1116 794 570 403 374 222 67 754 495 341 368 382 242 689 241 4 168 0 317 910 864 771 640 592 509 418 290 0
0 0 0 0 0 0 0 0 0 0 0 0 0 14 80 1139 1199 1242 1072 845 789 815 824 555 918 839 400 310 599 269 317 265 286 293 546 245 23 222 168 668 197 318 578 76 186 152 95 0 0
0 0 0 0 0 0 0 0 0 1 0 0 0 0 0 64 292 838 825 670 704 856 928 873 1498 1474 1658 909 1161 406 465 382 364 336 1030 666 344 912 825 146 265 326 100 47 90 55 96 41 61
0 0 0 0 0 0 0 0 0 0 0 0 0 0 0 0 6 894 664 540 723 947 1077 1172 1748 2212 2412 3799 1324 949 715 801 758 702 787 622 917 678 1107 913 424 501 352 230 480 306 739 739 373
0 0 3 6 4 1 0 0 0 0 0 0 0 0 0 0 28 132 780 1348 562 614 911 1948 2026 3008 2868 3204 3827 2890 3051 1982 1807 1515 1245 1129 1719 2403 1819 2290 1934 1842 1882 1011 599 846 1247 1274 1190
4 20 69 61 24 6 0 0 0 0 0 0 0 0 0 0 0 76 519 456 486 647 70 1803 3018 3350 3476 3319 3678 3407 2638 1912 2665 2019 3126 1937 2300 2829 3336 2489 2331 2148 2112 2709 2228 2185 2074 2240 1639
13 93 80 41 24 20 1 0 0 0 0 0 0 0 0 0 0 0 516 155 28 0 322 2544 2075 3469 3962 4116 3795 3328 2689 3430 2546 2942 2373 2673 2711 2428 3200 2771 2027 1668 1918 2160 2096 1946 1954 1831 1814
26 94 65 40 53 30 0 0 0 0 0 0 0 0 0 0 0 0 0 24 16 0 183 1552 1837 2629 3981 4226 3843 3823 3903 3644 3485 2961 3060 2516 2631 2771 2725 2325 1960 2776 2860 2943 2255 2123 2175 2127 2432
32 84 79 120 44 62 0 0 0 0 0 0 0 0 0 0 4 2 0 0 45 111 447 227 1885 1873 4051 3963 3649 3292 3147 3054 3286 2669 2594 2740 2424 2536 2755 2278 1984 2141 2342 2617 2270 2157 2703 2694 2450
9 91 74 98 26 0 0 0 0 2 0 0 0 0 0 0 0 39 31 21 9 75 68 705 752 1964 3103 2746 3079 2849 2496 2883 2580 2711 3530 2465 2330 2474 2683 2485 2219 2535 1842 2758 2690 2670 2931 2298 2023
8 103 13 12 34 0 0 0 0 0 0 0 0 0 0 0 0 42 50 61 65 75 223 260 791 1556 3288 2713 2733 2661 2593 1920 2288 2238 2771 3098 1987 1662 1771 1803 1631 1859 2203 2882 3077 2875 2472 2327 2322
10 7 25 7 2 0 0 0 0 0 0 0 0 0 1 27 0 64 59 126 122 93 96 372 1073 1457 2268 3202 3273 3874 3293 3598 3082 2928 3432 2637 1970 2086 1890 1896 1933 2230 2397 2293 2867 3203 2573 2284 1684
59 1 11 18 41 0 0 0 0 0 0 0 0 4 1 1 18 75 60 80 111 175 253 114 118 1485 1248 3099 2728 3717 2872 2162 2698 2149 2627 2787 2984 2981 3147 2427 2501 2462 2956 2531 2395 2668 2437 1941 1375
7 30 41 8 33 2 3 0 0 0 0 0 0 8 5 54 31 51 34 129 286 774 962 1166 1575 2066 2157 3449 3336 3329 3256 3037 2972 2566 4364 3468 3354 3016 2576 2580 2372 3107 2882 1971 1932 1662 2086 1621 1549
1 2 6 6 26 29 0 0 0 0 0 0 0 7 2 9 34 49 91 196 289 560 1022 1331 1649 2011 2064 1767 1964 2528 2963 3019 3097 2447 2106 2536 2585 2536 2255 1964 2264 2082 2062 1688 1511 1487 1183 1278 1184
18 113 40 37 25 0 0 2 0 8 0 0 0 0 8 6 5 9 29 23 146 171 341 407 689 628 728 713 518 944 638 2397 2525 2185 1298 1577 2028 2097 2306 1470 1413 1098 1281 1264 1113 1308 1135 1505 1071
21 55 47 22 15 0 0 0 2 15 0 0 3 0 4 6 1 1 6 0 0 9 44 16 40 43 107 279 243 412 483 225 284 640 666 398 241 208 1683 709 1208 1204 1109 1336 1031 997 921 702 663
17 0 2 17 0 23 30 71 31 1 28 46 22 20 1 43 54 1 0 5 0 1 10 0 7 0 0 2 129 182 189 213 141 191 434 295 333 170 252 469 675 1006 1034 1015 1034 948 809 865 832
21 9 6 10 125 31 78 116 109 52 29 45 25 57 27 8 0 0 1 52 45 31 0 0 0 0 0 0 0 6 65 39 96 121 164 223 397 182 116 222 269 418 677 1175 1186 848 787 819 544
37 35 130 92 115 190 14 2 196 133 34 63 44 9 0 0 0 4 12 22 0 6 5 0 0 0 0 0 0 0 0 0 1 29 57 110 144 146 92 98 139 216 285 403 610 870 742 578 610
36 35 334 465 134 103 228 208 131 48 83 107 7 0 0 0 0 0 4 3 0 0 0 1 0 0 0 0 0 0 0 0 11 14 6 3 1 2 0 1 1 5 17 129 379 453 429 530 540
CIN
0 0 0 0 0 0 0 0 -1 -10 -3 0 0 -1 -96 -169 -84 -146 -84 -94 -249 -347 -369 -344 -193 -121 -87 -59 -57 -76 -106 -85 -65 -45 -34 -17 -12 -4 0 0 0 -11 -82 -110 -105 -99 -116 -132 -162
0 0 0 0 0 0 0 0 -4 -26 0 0 0 -41 -53 -129 -69 -91 -145 -172 -268 -357 -373 -371 -208 -149 -97 -82 -84 -102 -87 -66 -54 -42 -27 -14 -10 -1 0 0 -1 -57 -140 -325 -225 -153 -149 -141 -139
0 0 0 0 0 0 0 -18 -21 -9 0 0 0 -43 -283 -384 -64 -67 -135 -241 -306 -335 -318 -311 -227 -172 -109 -93 -100 -97 -73 -46 -43 -32 -21 -18 -6 0 0 -1 -28 -103 -199 -370 -277 -170 -144 -195 -196
0 0 0 0 0 0 0 0 -2 -62 0 0 0 -129 -274 -546 -13 -98 -172 -238 -290 -330 -311 -308 -239 -193 -132 -102 -94 -85 -55 -38 -37 -24 -22 -17 -9 -3 -5 -22 -56 -105 -169 -326 -238 -134 -115 -137 -189
0 0 0 0 0 0 0 -3 -9 -37 -3 0 -1 -20 -66 -96 -105 -138 -150 -207 -242 -284 -324 -373 -256 -200 -140 -111 -81 -76 -69 -50 -31 -23 -20 -15 -11 -14 -27 -40 -61 -94 -161 -240 -212 -145 -116 -130 -153
0 0 0 0 0 0 0 -30 -32 0 0 0 0 -8 -25 -81 -106 -136 -153 -173 -195 -240 -376 -414 -274 -206 -153 -125 -90 -85 -88 -58 -32 -26 -19 -11 -15 -25 -37 -48 -62 -92 -124 -150 -161 -152 -144 -139 -139
0 0 0 0 0 0 -41 0 0 0 -1 -2 -1 -8 -29 -51 -89 -123 -152 -130 -175 -272 -373 -403 -411 -267 -159 -139 -102 -95 -94 -72 -49 -32 -28 -20 -23 -33 -46 -53 -68 -100 -125 -138 -159 -176 -206 -202 -229
0 0 0 0 0 0 -12 -3 -12 0 0 0 -12 -19 -15 -13 -64 -86 -114 -120 -162 -243 -375 -418 -429 -430 -338 -259 -128 -116 -103 -82 -63 -49 -39 -33 -35 -41 -49 -62 -76 -99 -118 -140 -165 -203 -286 -301 -296
0 0 0 0 0 0 0 0 0 0 0 0 0 -9 -153 -214 -29 -43 -61 -79 -116 -173 -279 -360 -468 -465 -481 -411 -265 -163 -165 -137 -94 -102 -50 -99 -211 -164 -171 -167 -95 -90 -115 -149 -171 -188 -234 -288 -281
0 0 0 0 0 0 0 0 0 0 0 0 0 -7 -27 -254 -27 -2 -32 -36 -78 -87 -193 -277 -357 -407 -425 -431 -322 -342 -359 -335 -308 -317 -189 -257 -282 -206 -1 -140 -86 -93 -113 -143 -155 -166 -180 -216 0
0 0 0 0 0 -1 0 0 0 0 0 0 0 -25 -3 -11 -1 -2 -1 -2 -26 -47 -110 -203 -252 -287 -309 -296 -328 -359 -318 -305 -291 -262 -209 -255 -242 -165 -144 -93 -185 -184 -157 -260 -280 -257 -320 0 0
0 0 0 0 0 0 0 0 0 -22 0 0 0 0 0 -106 -135 -1 -4 -3 -4 -43 -57 -137 -136 -172 -128 -154 -178 -284 -241 -251 -249 -237 -122 -160 -177 -63 -51 -136 -148 -173 -218 -287 -245 -266 -258 -362 -290
0 0 0 0 0 0 0 0 0 0 0 0 0 0 0 0 -33 -7 -21 -23 -8 -20 -24 -79 -102 -98 -81 -16 -115 -161 -170 -161 -164 -184 -160 -146 -87 -113 -35 -43 -87 -106 -88 -182 -110 -143 -72 -80 -105
0 -1 -2 -18 -7 -2 0 0 0 0 0 0 0 0 0 0 -51 -147 -19 -90 -243 -237 -132 -47 -74 -81 -57 -42 -16 -33 -29 -29 -35 -49 -108 -122 -29 -22 -24 -25 -26 -32 -37 -49 -61 -72 -57 -59 -43
-1 -2 -5 -2 -9 -14 0 0 0 0 0 0 0 0 0 0 0 -126 -82 -408 -392 -287 -249 -60 -46 -62 -56 -49 -27 -23 -27 -30 -22 -22 -22 -67 -39 -21 -12 -19 -28 -25 -35 -21 -32 -33 -32 -18 -26
-1 -2 -3 -12 -26 -26 -1 0 0 0 0 0 0 0 0 0 0 0 -49 -386 -405 0 -47 -23 -6 -37 -48 -10 -13 -16 -26 -10 -21 -26 -32 -31 -30 -32 -12 -18 -41 -23 -54 -38 -31 -33 -32 -27 -36
0 -3 -28 -53 -3 -6 -1 0 0 0 0 0 0 0 0 0 0 0 0 -25 -276 0 -16 -7 -11 -19 -57 -41 -18 -9 -5 -7 -13 -21 -44 -50 -19 -9 -24 -19 -33 -19 -24 -28 -27 -35 -33 -32 -42
0 -8 -1 -9 -1 -5 0 0 0 0 0 0 0 0 0 0 -6 -10 0 0 -55 -33 -38 -52 -27 -32 -38 -47 -40 -14 -7 -7 -9 -18 -67 -59 -31 -25 -24 -11 -34 -43 -54 -32 -34 -55 -28 -35 -30
-21 -6 -14 -4 -10 0 0 0 0 -87 0 0 0 0 0 0 -7 -19 -62 -87 -96 -96 -97 -73 -77 -62 -28 -29 -22 -38 -38 -15 -12 -13 -23 -79 -43 -15 -21 -27 -52 -34 -41 -23 -14 -13 -8 -25 -34
-9 -1 -1 -2 -22 0 0 0 0 0 0 0 0 0 0 0 0 -15 -54 -68 -93 -117 -89 -79 -94 -84 -28 -48 -53 -22 -37 -43 -21 -27 -43 -49 -130 -35 -19 -67 -91 -29 -22 -40 -19 -23 -34 -31 -26
-5 -7 0 -9 -2 0 0 0 0 0 0 0 0 0 -3 -14 0 -1 -13 -79 -91 -89 -104 -102 -68 -85 -63 -13 -18 -19 -30 -26 -20 -20 -59 -98 -113 -16 -24 -40 -50 -18 -30 -31 -25 -20 -30 -14 -48
-1 -2 -9 -10 -1 0 0 0 0 0 0 0 0 -11 -1 -2 -4 -13 -5 -25 -51 -65 -86 -137 -165 -66 -99 -4 -17 -10 -16 -28 -18 -35 -27 -58 -57 -38 -18 -18 -5 -18 -29 -27 -44 -20 -16 -33 -59
-11 -5 -8 -15 -2 -1 0 0 0 0 0 0 0 -7 -12 -10 -21 -11 -21 -28 -29 -25 -46 -61 -35 -16 -9 -3 -5 -13 -9 -11 -17 -32 -58 -75 -37 -15 -19 -16 -17 -12 -22 -28 -23 -20 -33 -32 -24
-2 -41 -5 -11 -2 -1 0 -1 0 0 0 0 0 -24 -21 -28 -18 -29 -4 -19 -22 -7 -18 -17 -14 -7 -10 -22 -6 -5 -5 -9 -20 -51 -50 -56 -35 -22 -17 -16 -17 -15 -11 -26 -21 -32 -26 -37 -38
-1 -3 -4 -1 -1 0 -1 -1 0 -4 0 0 0 0 -162 -112 -124 -90 -26 -96 -53 -69 -45 -61 -36 -59 -61 -79 -120 -75 -134 -7 -6 -18 -56 -23 -19 -18 -9 -27 -14 -20 -11 -20 -20 -15 -32 -21 -39
-7 0 0 -2 0 0 0 -1 0 -7 0 -3 -21 0 -184 -152 -39 -116 -114 0 0 -152 -100 -130 -133 -148 -128 -67 -104 -66 -83 -142 -154 -74 -96 -130 -164 -123 -26 -45 -5 -13 -12 -17 -29 -32 -29 -49 -56
-1 0 -14 -15 0 -19 -8 -33 -2 -7 -21 -38 -64 -63 -4 -18 -16 -47 -2 -22 -5 -222 -66 0 -77 0 0 -5 -63 -67 -90 -97 -136 -145 -110 -127 -132 -141 -102 -64 -40 -15 -21 -19 -22 -25 -30 -36 -44
-5 -1 -22 -9 -15 -4 -10 -7 -11 -43 -43 -48 -60 -59 -52 -53 0 -1 -2 -7 -7 -17 0 0 0 0 0 0 0 -47 -86 -106 -106 -108 -114 -134 -124 -189 -208 -155 -118 -74 -33 -14 -19 -21 -29 -40 -46
-3 -21 -1 0 0 -2 -68 -23 -2 -4 -27 -31 -21 -23 0 0 0 -3 -6 -10 0 -3 -12 0 0 0 0 0 0 0 0 0 -15 -119 -112 -88 -87 -100 -125 -127 -120 -100 -75 -61 -37 -32 -25 -25 -15
-1 -1 -1 -2 -6 -5 -39 0 -92 -7 -13 -1 -25 0 0 0 0 0 -5 -5 0 -1 0 -1 0 0 0 0 0 0 0 0 -73 -72 -93 -22 -7 -6 -8 -7 -7 -122 -111 -65 -26 -19 -7 -8 -14
Wind_Speed
15 16 11 11 7 8 16 19 16 3 5 7 6 8 14 8 13 5 10 19 23 20 17 17 17 16 15 14 14 14 15 14 13 12 12 11 11 11 10 9 9 10 10 8 7 6 6 6 7
11 17 9 9 11 12 14 20 17 12 14 6 1 6 22 13 5 13 12 22 20 18 14 16 17 17 16 15 15 15 14 14 14 13 12 11 11 10 10 8 9 9 8 7 6 6 6 5 6
14 15 9 7 13 16 18 10 16 14 11 5 5 23 11 12 11 10 15 24 21 16 15 15 17 16 16 15 15 15 14 13 14 13 13 12 11 10 9 9 8 8 7 6 6 6 5 5 5
9 9 8 11 19 21 25 13 5 18 5 4 8 17 14 33 8 11 18 23 20 19 18 16 17 16 15 15 15 16 16 14 14 14 13 12 12 11 10 9 8 8 6 6 6 6 5 4 3
10 8 12 15 20 22 21 1 10 8 13 10 10 17 22 19 20 19 19 19 19 18 17 16 16 16 15 15 15 15 16 15 14 13 13 12 11 11 10 9 8 7 6 6 6 5 5 4 3
10 10 13 16 21 21 22 13 10 9 17 4 7 16 17 23 21 21 21 19 19 20 16 15 16 16 15 14 14 14 15 14 13 13 12 11 11 10 10 9 8 7 7 6 5 5 5 5 4
15 13 16 20 19 23 20 16 10 9 14 10 5 9 15 24 21 20 19 18 20 20 17 13 14 14 14 14 13 13 13 14 13 12 12 11 11 10 9 8 7 7 6 6 6 6 6 5 6
14 13 22 19 18 24 16 12 4 9 15 10 8 6 17 21 19 18 19 20 20 19 18 15 13 14 12 11 13 12 12 12 11 11 11 11 10 9 9 7 7 7 7 7 7 7 7 7 8
20 15 16 22 20 24 15 22 1 12 7 5 8 15 9 19 13 18 16 17 16 17 16 16 16 13 13 13 11 12 13 12 11 10 10 9 7 8 10 10 11 11 9 9 8 8 8 8 9
16 13 21 17 15 14 7 24 10 10 7 9 12 7 22 30 17 15 16 15 17 20 19 17 16 15 14 12 13 10 10 8 8 8 9 7 8 9 11 13 14 13 11 10 10 10 9 8 6
20 15 18 14 11 2 7 20 20 1 9 5 4 14 16 9 18 17 17 18 17 17 14 18 15 14 14 12 10 6 6 6 6 8 9 8 7 6 7 4 6 6 10 6 9 8 6 9 8
23 22 22 20 5 4 4 12 18 18 10 11 11 6 4 12 16 15 16 18 18 18 16 17 16 12 9 10 10 10 8 8 7 8 9 7 5 5 5 5 8 8 6 8 6 6 9 11 9
26 24 23 21 9 3 5 10 10 22 21 16 13 14 10 17 20 9 4 9 12 15 16 17 14 9 6 3 9 10 9 9 10 10 10 7 6 5 5 4 4 7 7 8 8 7 5 7 5
23 23 23 22 15 10 10 12 12 19 21 24 14 11 16 10 6 13 4 11 13 14 14 15 14 11 7 5 2 4 5 7 7 8 11 13 7 5 5 5 4 4 4 5 7 6 5 5 5
24 23 14 12 11 7 13 20 20 17 17 21 18 16 15 13 8 8 11 13 10 12 16 23 12 13 9 7 4 3 5 4 4 5 7 13 9 6 5 4 5 5 5 6 3 3 2 1 3
26 14 17 24 19 13 9 16 20 17 19 16 16 20 22 15 9 8 7 13 15 5 27 19 13 16 13 9 7 4 4 3 5 3 5 12 12 9 5 4 3 4 3 4 4 4 4 4 5
22 12 12 27 21 17 15 13 21 24 25 12 15 17 21 14 7 7 5 9 21 22 5 4 5 12 16 11 7 7 6 5 4 6 4 8 9 10 6 4 5 4 3 3 4 4 5 4 3
24 22 24 34 23 19 15 18 17 18 17 11 13 19 13 13 7 8 4 6 7 2 5 4 2 5 10 9 7 4 6 6 6 6 5 7 9 10 7 5 4 5 4 5 4 5 2 1 4
25 21 26 23 15 20 19 16 13 13 13 16 12 13 14 11 18 6 9 9 9 7 5 4 2 3 1 4 7 6 5 5 6 6 7 8 10 10 10 5 6 5 10 6 3 2 1 2 3
28 26 23 20 21 18 16 14 13 17 14 21 14 7 11 16 12 6 8 6 4 6 5 2 3 3 3 2 2 2 5 6 6 7 7 7 8 7 8 8 3 16 9 7 4 3 1 3 3
23 25 22 13 12 15 9 14 13 13 18 19 13 12 10 5 6 6 6 7 8 5 5 5 3 3 5 5 3 3 2 4 2 4 4 6 14 19 12 12 12 10 9 5 5 5 6 4 3
22 23 22 21 16 12 17 13 19 16 18 19 23 18 15 11 4 5 0 3 2 4 6 5 4 3 5 5 4 4 4 6 4 7 7 9 9 8 7 9 8 7 5 5 5 5 4 5 4
21 23 11 15 13 16 20 15 10 20 16 16 11 11 12 12 8 6 7 3 3 8 8 6 7 7 4 4 3 5 6 4 3 6 5 6 4 2 5 5 7 5 4 4 4 3 5 4 4
21 14 16 17 11 13 19 15 14 17 21 20 15 9 8 8 10 8 7 6 8 9 8 7 7 6 6 5 3 3 6 7 6 5 2 3 2 4 5 6 6 6 3 3 2 3 2 2 2
15 11 8 9 11 13 18 16 14 12 23 22 19 12 7 3 10 4 7 10 9 8 7 8 9 9 9 10 11 10 10 6 5 4 5 6 3 4 4 2 2 2 1 3 4 3 4 4 3
22 18 11 17 12 16 18 17 15 12 19 19 18 16 13 10 12 8 9 10 8 7 7 7 8 7 8 8 8 8 9 7 6 7 5 3 2 4 1 4 4 3 3 5 5 3 3 4 5
20 19 19 11 14 11 11 13 13 20 19 21 18 15 15 8 9 11 10 11 10 8 5 5 7 6 6 6 6 6 6 7 7 8 7 7 7 7 8 7 5 5 5 6 5 5 5 6 6
17 12 17 9 16 4 5 14 11 18 19 20 19 14 9 7 8 7 5 7 5 8 6 3 4 4 5 5 4 5 5 6 6 5 6 7 6 7 6 4 5 6 6 6 6 7 7 8 8
10 13 14 14 11 11 4 7 8 16 15 15 17 15 12 7 7 8 7 8 5 3 9 4 4 6 3 4 3 2 4 5 5 5 5 5 6 6 6 8 7 7 7 7 7 8 10 12 11
15 14 11 7 12 7 6 8 3 4 10 9 14 14 12 7 3 6 4 5 4 3 4 1 3 5 2 3 4 5 4 4 4 5 6 6 6 7 8 9 10 10 10 8 9 11 13 14 14
Wind_Direction
286 269 245 259 255 231 260 254 253 16 184 68 35 1 113 116 178 166 107 107 120 135 135 136 128 127 130 137 138 134 133 136 136 132 130 127 119 118 115 115 111 106 102 105 107 106 105 100 92
293 291 274 274 243 254 248 250 254 189 98 79 337 155 72 72 89 122 120 115 123 131 146 138 132 129 133 138 137 135 137 140 139 137 135 133 123 128 129 121 111 108 108 110 115 115 111 106 93
269 259 274 241 236 247 255 354 12 217 108 147 249 90 77 316 285 127 118 113 123 139 145 134 132 129 131 136 136 135 137 144 142 142 141 136 130 133 133 129 123 119 122 126 132 136 134 119 111
259 230 242 263 252 242 254 289 336 325 99 211 242 92 119 153 233 120 138 126 139 147 133 139 132 131 133 137 139 140 142 147 147 148 144 142 141 142 139 139 137 132 133 147 156 156 148 137 139
241 267 235 243 244 253 254 130 302 248 271 190 253 120 133 171 116 147 140 141 141 140 131 145 136 135 138 141 142 146 147 150 152 150 149 150 148 149 149 152 151 145 160 172 171 170 168 180 191
234 225 252 234 247 245 259 124 272 248 289 245 219 136 125 132 146 149 146 149 142 121 141 145 138 139 143 146 149 150 148 151 153 154 154 154 154 160 161 162 161 164 179 188 180 185 194 207 224
239 229 234 251 250 250 234 247 214 253 278 304 317 170 143 149 146 148 145 141 128 129 137 149 152 145 144 147 150 150 150 155 156 156 155 158 162 169 171 171 170 180 193 196 198 200 209 222 231
230 248 248 236 259 266 267 236 166 246 256 3 310 59 159 146 144 141 145 137 136 135 143 151 154 159 160 157 155 154 155 156 154 157 161 164 168 175 180 176 186 195 204 209 213 212 220 230 230
258 243 242 247 229 257 1 314 147 250 341 323 314 84 95 21 140 146 148 142 145 140 149 156 162 163 169 160 164 158 163 159 157 163 170 164 189 182 187 200 192 197 205 216 221 223 226 236 246
239 240 239 244 275 235 334 297 288 223 231 249 268 92 133 121 256 161 160 156 156 149 159 159 164 164 174 164 151 176 174 180 183 181 174 200 215 181 202 199 189 190 203 218 224 227 230 236 250
218 244 248 248 27 40 188 305 329 304 246 227 58 34 11 197 180 166 171 168 164 161 162 158 160 163 175 158 150 173 172 185 186 192 175 203 215 226 199 147 172 184 206 217 212 220 223 227 229
225 219 251 269 80 17 307 335 318 325 264 6 356 12 66 327 284 186 186 173 167 163 164 151 149 163 189 145 157 170 184 181 182 195 184 190 224 249 197 175 191 195 194 204 232 211 214 218 233
230 226 229 250 144 230 322 295 306 301 324 339 321 326 312 150 260 237 187 161 169 159 153 150 148 159 195 197 166 168 189 178 185 179 183 194 206 236 193 236 228 177 206 194 215 210 210 211 214
223 235 228 235 265 203 261 290 302 286 314 314 284 285 285 281 258 324 319 53 56 356 345 135 150 154 178 210 178 158 172 180 179 176 182 189 198 217 232 198 234 263 260 208 202 207 208 209 227
230 234 223 236 267 225 265 266 249 269 284 291 331 300 287 278 255 180 291 79 18 25 76 275 159 160 175 199 213 208 179 225 191 194 179 183 195 221 232 219 198 215 231 265 295 335 325 295 299
228 204 255 219 201 235 171 255 274 266 250 274 287 297 290 263 257 286 166 108 147 43 226 187 173 165 172 178 183 205 233 209 206 221 198 175 185 199 223 232 253 242 228 227 208 223 219 237 233
213 228 195 272 219 184 180 230 256 251 241 252 265 279 270 264 208 268 306 168 176 190 186 179 170 168 173 174 178 186 210 213 238 209 206 181 187 185 182 232 227 225 220 250 219 218 203 239 275
205 187 243 223 210 199 184 235 250 259 235 230 256 288 277 307 258 218 232 324 0 218 158 142 359 200 159 167 171 195 200 213 224 231 205 188 197 181 179 218 242 263 233 229 234 236 165 135 291
214 205 221 235 191 184 211 223 235 226 222 213 248 272 274 273 306 39 44 18 357 357 12 358 167 329 154 143 176 182 219 212 214 222 220 193 185 195 155 171 279 216 231 228 171 176 322 264 291
215 215 228 231 186 198 198 230 240 255 219 218 217 275 257 267 288 34 25 357 356 340 330 317 322 303 285 190 195 226 199 219 210 218 204 178 100 55 210 193 200 240 232 216 183 163 290 285 251
222 235 236 234 172 183 215 233 233 228 251 219 218 251 275 182 135 321 30 17 348 321 326 346 295 272 286 258 226 210 276 298 281 218 177 171 169 199 190 199 221 246 236 166 187 174 188 221 294
219 228 242 212 190 217 197 243 206 211 220 204 221 198 178 199 160 112 147 37 40 345 29 9 331 286 258 240 247 276 214 229 242 259 207 181 186 172 173 211 235 238 265 218 168 196 179 168 218
232 219 221 242 215 211 205 220 239 187 208 212 219 210 185 152 173 119 73 11 42 50 40 33 5 5 6 341 288 340 309 281 293 306 54 72 107 244 223 208 222 238 233 283 206 171 176 188 208
228 234 196 234 230 210 239 203 233 191 196 199 210 138 92 107 112 127 100 70 38 63 68 54 48 32 22 15 351 321 323 336 332 2 10 87 165 237 236 212 196 204 218 278 222 184 198 224 268
216 210 210 200 226 240 227 212 236 187 181 190 183 132 127 153 100 64 101 79 73 60 78 79 60 48 37 34 32 32 16 348 334 351 10 288 221 216 208 157 189 139 159 288 301 222 221 211 212
201 207 218 199 211 228 232 215 228 132 178 152 134 146 166 152 146 149 115 125 97 54 49 65 55 50 42 37 38 28 16 15 26 23 1 349 322 25 159 187 177 201 210 224 235 264 241 226 223
190 221 237 309 295 253 233 99 99 123 127 141 146 145 159 147 130 153 146 142 128 101 50 77 85 68 53 48 33 31 14 19 23 5 357 5 4 349 18 352 350 271 230 231 243 226 235 228 223
228 210 227 212 252 351 227 153 164 164 157 150 154 152 129 146 171 175 118 98 71 126 141 80 54 81 71 35 29 34 346 6 2 354 349 345 342 346 329 331 318 301 292 263 245 251 239 230 232
187 232 253 245 246 230 156 330 295 166 166 166 149 148 143 166 189 169 173 133 174 162 114 79 10 335 63 33 353 349 357 349 339 346 322 317 320 308 296 294 291 276 277 271 264 252 258 266 261
236 226 234 243 253 308 77 131 80 76 125 157 162 154 150 130 35 332 58 78 42 91 358 338 127 296 315 350 347 330 317 307 309 301 303 303 301 302 301 298 289 283 277 276 269 257 255 256 258